Location: São Paulo
(23.5507°S, 46.6334°W)
Time: 15:43:16
(UTC-03:00)

Altair - Visible Passes

Search period start: 18 February 2026 00:00
Search period end: 28 February 2026 00:00
Orbit: 1502 x 1682 km, 47.2° (Epoch: 18 February)

Date Brightness Start Highest point End Pass type
(mag) Time Alt. Az. Time Alt. Az. Time Alt. Az.
18 Feb 9.4 18:53:15 10° SW 18:59:19 17° S 19:05:18 10° SSE visible
18 Feb 8.9 21:00:38 10° SSW 21:08:01 23° SSE 21:11:46 18° SE visible
18 Feb 8.7 23:04:51 10° SW 23:09:45 34° SSW 23:09:45 34° SSW visible
19 Feb 9.0 20:35:21 10° SSW 20:42:32 22° SSE 20:47:34 15° SE visible
19 Feb 8.4 22:39:36 10° SW 22:45:33 40° SSW 22:45:33 40° SSW visible
20 Feb 9.1 20:10:02 10° SSW 20:17:02 21° SSE 20:23:23 11° ESE visible
20 Feb 8.2 22:14:22 10° SW 22:21:23 45° S 22:21:23 45° S visible
21 Feb 9.2 19:44:43 10° SSW 19:51:31 20° SSE 19:58:09 10° ESE visible
21 Feb 8.0 21:49:09 10° SW 21:57:15 48° SSE 21:57:15 48° SSE visible
21 Feb 9.5 23:54:16 10° WSW 23:55:15 13° WSW 23:55:15 13° WSW visible
22 Feb 9.2 19:19:21 10° SSW 19:25:59 19° SSE 19:32:29 10° SE visible
22 Feb 8.0 21:23:55 10° SW 21:33:11 46° SE 21:33:11 46° SE visible
22 Feb 9.3 23:28:51 10° WSW 23:31:10 19° WSW 23:31:10 19° WSW visible
23 Feb 9.2 18:53:58 10° SSW 19:00:27 19° S 19:06:49 10° SE visible
23 Feb 8.0 20:58:41 10° SW 21:07:55 43° SE 21:09:09 41° SE visible
23 Feb 9.0 23:03:29 10° SW 23:07:09 26° WSW 23:07:09 26° WSW visible
24 Feb 8.1 20:33:27 10° SSW 20:42:34 39° SSE 20:45:10 34° ESE visible
24 Feb 8.6 22:38:06 10° SW 22:43:10 34° WSW 22:43:10 34° WSW visible
25 Feb 8.3 20:08:13 10° SSW 20:17:11 37° SSE 20:21:14 27° ESE visible
25 Feb 8.2 22:12:46 10° SW 22:19:14 46° WSW 22:19:14 46° WSW visible
26 Feb 8.4 19:43:00 10° SSW 19:51:48 34° SSE 19:57:21 20° E visible
26 Feb 7.8 21:47:27 10° SW 21:55:22 61° WSW 21:55:22 61° WSW visible
27 Feb 8.5 19:17:46 10° SSW 19:26:24 32° SSE 19:33:32 14° E visible
27 Feb 7.4 21:22:08 10° SW 21:31:33 80° W 21:31:33 80° W visible
